Location: Edisto_Beach
(32.4790°N, 80.3350°W)
Time: 01:29:07
(UTC-04:00)

Amateur Radio Satellites - All Passes

Search period start: 22 August 2017 00:59
Search period end: 23 August 2017 00:59
Location: Edisto_Beach, 32.4790°N, 80.3350°W

Satellite Date Start Highest point End Downlink Frequencies (MHz)
Time Altitude Azimuth
ESTCUBE 1 22 Aug 01:03:20 01:06:50 22° 264° (W) 01:10:21 437.505/2401.250
SPROUT 22 Aug 01:04:09 01:08:25 86° 75° (ENE) 01:12:41 437.525
VELOX 1 22 Aug 01:04:15 01:08:41 67° 75° (ENE) 01:13:06 145.980
DX 1 22 Aug 01:04:20 01:07:08 17° 68° (ENE) 01:09:56 434.975-435.025
AIST 2D 22 Aug 01:08:07 01:11:15 29° 286° (WNW) 01:14:22 435.315
50 SAT 22 Aug 01:20:49 01:23:50 30° 74° (ENE) 01:26:53 437.505
Oscar 19 22 Aug 01:33:17 01:34:49 11° 92° (E) 01:36:20 437.125/150
NANOSAT C BR1 22 Aug 01:42:56 01:46:56 44° 286° (WNW) 01:50:55 145.865
POLYITAN 1 22 Aug 01:48:50 01:52:38 34° 287° (WNW) 01:56:26 437.675
M-CUBED/EXP-1 PRIME 22 Aug 02:00:56 02:03:45 17° 297° (WNW) 02:06:26 437.505
QB50P2 22 Aug 02:04:38 02:07:45 20° 290° (WNW) 02:10:52 145.880/145.840
EO-79 22 Aug 02:04:48 02:08:04 22° 289° (WNW) 02:11:19 145.935-145.965
UKube-1 22 Aug 02:14:39 02:18:57 75° 76° (ENE) 02:23:17 .
NO-84 22 Aug 02:19:09 02:20:15 12° 321° (NW) 02:21:22 435.350 FM
BUGSAT 1 22 Aug 02:28:26 02:32:23 58° 284° (WNW) 02:36:21 437.445
DUCHIFAT 1 22 Aug 02:34:35 02:36:34 13° 292° (WNW) 02:38:32 145.980
DX 1 22 Aug 02:39:02 02:43:00 34° 261° (W) 02:47:00 434.975-435.025
MOZHAYETS 4 22 Aug 02:46:21 02:47:58 12° 66° (ENE) 02:49:35
Gurwin Techsat 1B 22 Aug 02:52:13 02:57:24 52° 100° (E) 03:02:34 435.225
Oscar 19 22 Aug 03:09:19 03:14:28 66° 285° (WNW) 03:19:36 437.125/150
BEESAT 22 Aug 03:09:58 03:14:02 29° 71° (ENE) 03:18:07 436.000
YUBILEINY 22 Aug 03:22:54 03:31:18 50° 79° (E) 03:39:36 435.215
ITUPSAT 1 22 Aug 03:44:22 03:49:04 70° 76° (ENE) 03:53:49 437.325
AO-7 22 Aug 03:53:17 04:00:14 29° 98° (E) 04:07:06 .
MOZHAYETS 4 22 Aug 04:20:10 04:24:36 53° 260° (W) 04:29:04
KKS-1 22 Aug 04:25:27 04:27:05 12° 66° (ENE) 04:28:43 437.445
ITAMSAT 1 22 Aug 04:31:31 04:36:29 46° 100° (E) 04:41:26 435.822/435.867
Gurwin Techsat 1B 22 Aug 04:33:40 04:36:52 16° 294° (WNW) 04:40:03 435.225
CUBESAT XI-V 22 Aug 04:43:13 04:47:38 46° 74° (ENE) 04:52:07 437.345
BEESAT 22 Aug 04:48:03 04:51:44 22° 264° (W) 04:55:26 436.000
BEESAT 3 22 Aug 04:52:59 04:56:48 47° 114° (ESE) 05:00:41 437.485
STARS 22 Aug 05:00:41 05:02:03 11° 66° (ENE) 05:03:26 437.465
BEESAT 2 22 Aug 05:10:36 05:13:36 21° 110° (ESE) 05:16:38 435.950
YUBILEINY 22 Aug 05:20:31 05:27:34 29° 275° (W) 05:34:39 435.215
AO-85 22 Aug 05:27:49 05:31:47 72° 116° (ESE) 05:35:41 145.980
AO-7 22 Aug 05:45:11 05:53:08 53° 293° (WNW) 06:01:04 .
KKS-1 22 Aug 05:58:46 06:03:07 52° 260° (W) 06:07:29 437.445
ITAMSAT 1 22 Aug 06:12:15 06:15:32 17° 294° (WNW) 06:18:48 435.822/435.867
CUBESAT XI-V 22 Aug 06:23:01 06:25:12 13° 267° (W) 06:27:23 437.345
BEESAT 3 22 Aug 06:32:49 06:34:37 13° 310° (NW) 06:36:26 437.485
STARS 22 Aug 06:33:35 06:37:53 52° 259° (W) 06:42:11 437.465
LilacSat-2 22 Aug 06:36:53 06:39:41 19° 95° (E) 06:42:29 437.200
XW-2D 22 Aug 06:39:20 06:42:11 20° 96° (E) 06:45:01 145.860 - 145.880
NUDT-PHONESAT 22 Aug 06:41:05 06:42:58 13° 94° (E) 06:44:52 437.300
BEESAT 2 22 Aug 06:47:52 06:51:10 25° 305° (NW) 06:54:31 435.950
XW-2B 22 Aug 06:50:05 06:53:19 26° 97° (E) 06:56:34 145.730 - 145.750
CUTE-I 22 Aug 06:50:22 06:54:41 25° 96° (E) 06:58:57 437.470
DOVE 4 22 Aug 06:50:49 06:55:16 80° 283° (WNW) 06:59:28 437.250
XW-2C 22 Aug 07:08:49 07:12:33 48° 100° (E) 07:16:16 145.795 - 145.815
XW-2F 22 Aug 07:19:46 07:23:34 65° 101° (E) 07:27:22 145.980 - 146.000
STRAND 1 22 Aug 07:25:53 07:30:24 33° 71° (ENE) 07:34:55 437.568
PCSat 22 Aug 07:36:33 07:40:29 20° 54° (NE) 07:44:24 145.827
KAITUO 1B 22 Aug 07:42:34 07:46:22 76° 283° (WNW) 07:50:09 145.475/437.950
HO-68 22 Aug 07:48:12 07:54:26 32° 98° (E) 08:00:38 435.675
LilacSat-2 22 Aug 08:10:49 08:13:50 22° 288° (WNW) 08:16:52 437.200
CUTE 1.7 + AOD 2 22 Aug 08:12:39 08:16:47 45° 99° (E) 08:20:53 437.475
XW-2D 22 Aug 08:13:17 08:16:13 21° 288° (WNW) 08:19:09 145.860 - 145.880
NUDT-PHONESAT 22 Aug 08:13:35 08:16:51 28° 287° (WNW) 08:20:07 437.300
XW-2B 22 Aug 08:24:50 08:27:15 16° 290° (WNW) 08:29:40 145.730 - 145.750
UWE-3 22 Aug 08:28:48 08:31:53 19° 96° (E) 08:35:02 435.000/436.395/437.385
CUTE-I 22 Aug 08:30:00 08:34:39 32° 290° (WNW) 08:39:18 437.470
SO-50 22 Aug 08:33:18 08:37:47 54° 59° (ENE) 08:42:19 436.795
CUBEBUG 2 22 Aug 08:38:14 08:42:19 45° 99° (E) 08:46:30 437.445
ISS 22 Aug 08:39:46 08:41:34 14° 127° (SE) 08:43:21 437.550
Tancredo 1 22 Aug 08:41:17 08:44:11 89° 135° (SE) 08:47:05 437.200
nSIGHT-1 22 Aug 08:45:44 08:48:00 18° 128° (SE) 08:50:17 .
O/OREOS (USA 219) 22 Aug 08:50:20 08:53:10 17° 100° (E) 08:56:01 437.305
XW-2A 22 Aug 08:52:30 08:55:55 76° 101° (E) 08:59:19 145.665 - 145.685
NO-84 22 Aug 08:53:29 08:56:19 31° 46° (NE) 08:59:21 435.350 FM
SEEDS 22 Aug 08:57:35 09:01:51 81° 283° (WNW) 09:06:05 437.485
JUGNU 22 Aug 08:57:46 08:59:19 11° 162° (SSE) 09:00:51 437.505
ZACube-1 22 Aug 09:04:47 09:08:29 27° 97° (E) 09:12:13 437.345
STRAND 1 22 Aug 09:05:34 09:09:32 23° 264° (W) 09:13:32 437.568
PCSat 22 Aug 09:18:54 09:24:05 47° 250° (WSW) 09:29:14 145.827
AO-73 22 Aug 09:24:44 09:28:51 41° 99° (E) 09:33:02 145.935
HO-68 22 Aug 09:35:33 09:42:07 41° 292° (WNW) 09:48:41 435.675
AAUSAT CUBESAT 2 22 Aug 09:38:44 09:42:50 58° 284° (WNW) 09:46:55 437.432
FO-29 22 Aug 09:39:27 09:46:58 61° 74° (ENE) 09:53:52 435.910
TIGRISAT 22 Aug 09:42:48 09:45:38 17° 69° (ENE) 09:48:27 435.000
CUTE 1.7 + AOD 2 22 Aug 09:50:29 09:52:09 12° 293° (WNW) 09:53:49 437.475
UWE-3 22 Aug 10:04:37 10:08:17 28° 287° (WNW) 10:12:00 435.000/436.395/437.385
Oscar 11 22 Aug 10:08:00 10:12:22 80° 283° (WNW) 10:16:42 .
ISS 22 Aug 10:14:41 10:17:46 37° 320° (NW) 10:20:52 437.550
SO-50 22 Aug 10:15:58 10:17:45 12° 252° (WSW) 10:19:32 436.795
CUBEBUG 2 22 Aug 10:16:55 10:18:31 12° 292° (WNW) 10:20:09 437.445
PRISM 22 Aug 10:20:48 10:24:37 35° 73° (ENE) 10:28:25 437.425
nSIGHT-1 22 Aug 10:21:16 10:24:11 30° 321° (NW) 10:27:08 .
O/OREOS (USA 219) 22 Aug 10:28:13 10:32:14 33° 294° (WNW) 10:36:17 437.305
RS-15 22 Aug 10:28:18 10:39:17 42° 106° (ESE) 10:50:26 29.354- 29.394
DELFI C3 22 Aug 10:30:46 10:34:28 37° 98° (E) 10:38:07 145.870
NO-84 22 Aug 10:31:40 10:33:32 14° 236° (SW) 10:35:29 435.350 FM
ZACube-1 22 Aug 10:41:21 10:44:33 20° 289° (WNW) 10:47:47 437.345
UNISAT 6 22 Aug 10:42:58 10:47:20 77° 258° (WSW) 10:51:37 437.425
JUGNU 22 Aug 10:43:25 10:47:41 20° 171° (S) 10:51:55 437.505
EO-88 22 Aug 10:49:27 10:52:51 35° 98° (E) 10:56:13 145.990 - 145.960
AO-73 22 Aug 11:02:32 11:04:41 14° 291° (WNW) 11:06:52 145.935
M-CUBED/EXP-1 PRIME 22 Aug 11:06:50 11:10:13 21° 64° (ENE) 11:13:42 437.505
TIGRISAT 22 Aug 11:18:12 11:22:04 31° 262° (W) 11:25:52 435.000
QB50P2 22 Aug 11:19:06 11:20:10 11° 67° (ENE) 11:21:13 145.880/145.840
FO-29 22 Aug 11:26:29 11:32:06 22° 265° (W) 11:37:27 435.910
Max Valier Satellite 22 Aug 11:32:23 11:35:50 37° 285° (WNW) 11:39:17 145.860
AIST 2D 22 Aug 11:37:22 11:40:37 39° 75° (ENE) 11:43:53 435.315
DUCHIFAT 1 22 Aug 11:45:39 11:48:15 16° 69° (ENE) 11:50:52 145.980
PRISM 22 Aug 11:57:49 11:59:57 14° 266° (W) 12:02:06 437.425
DELFI C3 22 Aug 12:07:13 12:08:50 12° 292° (WNW) 12:10:28 145.870
LO-87 22 Aug 12:14:07 12:17:34 51° 100° (E) 12:20:59 145.935 - 145.965
EO-88 22 Aug 12:25:09 12:26:08 11° 291° (WNW) 12:27:06 145.990 - 145.960
NANOSAT C BR1 22 Aug 12:29:47 12:33:56 68° 76° (ENE) 12:38:06 145.865
JUGNU 22 Aug 12:31:27 12:36:06 24° 181° (S) 12:40:44 437.505
POLYITAN 1 22 Aug 12:35:59 12:40:11 87° 264° (W) 12:44:23 437.675
RS-15 22 Aug 12:39:38 12:51:25 53° 305° (NW) 13:03:26 29.354- 29.394
M-CUBED/EXP-1 PRIME 22 Aug 12:40:23 12:44:20 32° 259° (WSW) 12:48:28 437.505
Oscar 19 22 Aug 12:46:24 12:47:50 11° 64° (ENE) 12:49:17 437.125/150
SRMSAT 22 Aug 12:46:32 12:50:05 16° 167° (SSE) 12:53:38 437.500
QB50P2 22 Aug 12:51:23 12:55:27 49° 260° (W) 12:59:32 145.880/145.840
EO-79 22 Aug 12:51:26 12:55:33 55° 259° (W) 12:59:40 145.935-145.965
SPROUT 22 Aug 12:55:06 12:58:14 20° 96° (E) 13:01:21 437.525
ESTCUBE 1 22 Aug 12:59:04 13:03:36 74° 283° (WNW) 13:08:06 437.505/2401.250
VELOX 1 22 Aug 12:59:52 13:02:52 18° 95° (E) 13:05:49 145.980
BUGSAT 1 22 Aug 13:13:11 13:17:07 47° 75° (ENE) 13:21:01 437.445
DUCHIFAT 1 22 Aug 13:19:55 13:23:38 31° 262° (W) 13:27:20 145.980
AO-85 22 Aug 14:03:16 14:06:22 19° 54° (NE) 14:09:37 145.980
UKube-1 22 Aug 14:07:16 14:10:08 17° 95° (E) 14:12:58 .
Gurwin Techsat 1B 22 Aug 14:08:39 14:13:48 53° 73° (ENE) 14:18:57 435.225
50 SAT 22 Aug 14:18:43 14:22:02 60° 101° (E) 14:25:20 437.505
JUGNU 22 Aug 14:20:33 14:24:30 18° 191° (S) 14:28:26 437.505
Oscar 19 22 Aug 14:21:21 14:26:27 72° 258° (WSW) 14:31:38 437.125/150
SPROUT 22 Aug 14:30:33 14:34:02 26° 289° (WNW) 14:37:32 437.525
DX 1 22 Aug 14:31:12 14:35:29 56° 101° (E) 14:39:43 434.975-435.025
SRMSAT 22 Aug 14:34:04 14:38:38 23° 176° (S) 14:43:11 437.500
VELOX 1 22 Aug 14:35:25 14:39:18 31° 288° (WNW) 14:43:09 145.980
AO-7 22 Aug 14:47:44 14:54:28 28° 61° (ENE) 15:01:12 .
BEESAT 3 22 Aug 14:51:07 14:55:05 85° 243° (WSW) 14:58:58 437.485
RS-15 22 Aug 15:00:58 15:07:47 16° 333° (NNW) 15:14:35 29.354- 29.394
BEESAT 2 22 Aug 15:08:55 15:12:47 42° 59° (ENE) 15:16:34 435.950
Tancredo 1 22 Aug 15:09:45 15:09:49 10° 31° (NNE) 15:09:54 437.200
BEESAT 22 Aug 15:17:44 15:18:01 10° 92° (E) 15:18:18 436.000
UKube-1 22 Aug 15:42:21 15:46:08 30° 288° (WNW) 15:49:54 .
AO-85 22 Aug 15:42:39 15:46:50 39° 246° (WSW) 15:51:17 145.980
ITAMSAT 1 22 Aug 15:44:53 15:49:50 45° 72° (ENE) 15:54:45 435.822/435.867
ITUPSAT 1 22 Aug 15:49:54 15:53:52 26° 97° (E) 15:57:49 437.325
Gurwin Techsat 1B 22 Aug 15:51:01 15:53:58 15° 267° (W) 15:56:55 435.225
DX 1 22 Aug 16:10:35 16:11:07 10° 295° (WNW) 16:11:39 434.975-435.025
YUBILEINY 22 Aug 16:17:25 16:26:06 67° 92° (E) 16:34:44 435.215
MOZHAYETS 4 22 Aug 16:19:30 16:24:00 49° 100° (E) 16:28:28
SRMSAT 22 Aug 16:22:49 16:27:12 22° 187° (S) 16:31:36 437.500
AO-7 22 Aug 16:38:29 16:46:40 58° 257° (WSW) 16:54:54 .
Tancredo 1 22 Aug 16:42:25 16:45:17 65° 226° (SW) 16:48:07 437.200
CUBESAT XI-V 22 Aug 16:45:22 16:48:25 17° 94° (E) 16:51:25 437.345
ISS 22 Aug 16:46:12 16:48:57 24° 37° (NE) 16:51:41 437.550
BEESAT 2 22 Aug 16:48:37 16:50:04 12° 252° (WSW) 16:51:31 435.950
BEESAT 22 Aug 16:51:23 16:56:06 62° 285° (WNW) 17:00:47 436.000
nSIGHT-1 22 Aug 16:52:05 16:54:58 29° 39° (NE) 16:57:51 .
RS-15 22 Aug 17:25:00 17:28:26 11° 13° (NNE) 17:31:51 29.354- 29.394
ITAMSAT 1 22 Aug 17:26:08 17:29:25 17° 265° (W) 17:32:43 435.822/435.867
ITUPSAT 1 22 Aug 17:27:38 17:31:33 26° 290° (WNW) 17:35:29 437.325
XW-2C 22 Aug 17:47:30 17:49:02 12° 69° (ENE) 17:50:35 145.795 - 145.815
DOVE 4 22 Aug 17:50:06 17:55:18 62° 75° (ENE) 18:00:26 437.250
KKS-1 22 Aug 17:54:12 17:58:23 40° 99° (E) 18:02:31 437.445
XW-2F 22 Aug 17:57:17 17:59:32 15° 70° (ENE) 18:01:48 145.980 - 146.000
MOZHAYETS 4 22 Aug 17:58:30 18:00:40 13° 293° (WNW) 18:02:49
CUTE-I 22 Aug 18:07:43 18:12:08 27° 69° (ENE) 18:16:34 437.470
SRMSAT 22 Aug 18:13:06 18:15:44 13° 196° (SSW) 18:18:21 437.500
HO-68 22 Aug 18:14:45 18:18:22 15° 59° (ENE) 18:21:59 435.675
YUBILEINY 22 Aug 18:17:07 18:23:27 22° 289° (WNW) 18:29:50 435.215
KAITUO 1B 22 Aug 18:18:25 18:21:21 23° 72° (ENE) 18:24:18 145.475/437.950
CUBESAT XI-V 22 Aug 18:21:30 18:25:50 37° 287° (WNW) 18:30:09 437.345
ISS 22 Aug 18:22:43 18:25:19 22° 231° (SW) 18:27:55 437.550
STARS 22 Aug 18:27:25 18:31:29 37° 99° (E) 18:35:31 437.465
nSIGHT-1 22 Aug 18:28:54 18:31:10 18° 232° (SW) 18:33:24 .
LilacSat-2 22 Aug 18:46:59 18:50:45 90° 118° (ESE) 18:54:33 437.200
NUDT-PHONESAT 22 Aug 18:47:28 18:51:03 56° 76° (ENE) 18:54:40 437.300
XW-2D 22 Aug 18:48:45 18:52:29 89° 257° (WSW) 18:56:16 145.860 - 145.880
XW-2B 22 Aug 18:59:55 19:03:37 64° 259° (W) 19:07:22 145.730 - 145.750
CUTE 1.7 + AOD 2 22 Aug 19:01:34 19:04:28 18° 70° (ENE) 19:07:23 437.475
O/OREOS (USA 219) 22 Aug 19:04:11 19:07:08 17° 62° (ENE) 19:10:05 437.305
XW-2C 22 Aug 19:19:29 19:22:52 32° 262° (W) 19:26:17 145.795 - 145.815
XW-2A 22 Aug 19:21:28 19:22:26 11° 70° (ENE) 19:23:25 145.665 - 145.685
XW-2F 22 Aug 19:30:18 19:33:24 25° 263° (W) 19:36:33 145.980 - 146.000
DOVE 4 22 Aug 19:30:54 19:33:12 13° 268° (W) 19:35:30 437.250
KKS-1 22 Aug 19:32:10 19:34:32 14° 293° (WNW) 19:36:54 437.445
CUBEBUG 2 22 Aug 19:32:32 19:35:46 21° 71° (ENE) 19:38:57 437.445
RS-15 22 Aug 19:35:59 19:46:34 34° 46° (NE) 19:56:35 29.354- 29.394
STRAND 1 22 Aug 19:41:57 19:45:02 16° 94° (E) 19:48:07 437.568
SEEDS 22 Aug 19:44:30 19:48:20 36° 74° (ENE) 19:52:12 437.485
CUTE-I 22 Aug 19:47:20 19:52:00 30° 263° (W) 19:56:42 437.470
KAITUO 1B 22 Aug 19:52:51 19:55:15 16° 265° (W) 19:57:41 145.475/437.950
HO-68 22 Aug 19:57:58 20:05:07 87° 254° (WSW) 20:12:19 435.675
ZACube-1 22 Aug 19:58:20 19:59:43 11° 68° (ENE) 20:01:06 437.345
STARS 22 Aug 20:04:58 20:07:27 15° 292° (WNW) 20:09:56 437.465
AO-73 22 Aug 20:16:49 20:19:33 17° 70° (ENE) 20:22:18 145.935
AAUSAT CUBESAT 2 22 Aug 20:23:46 20:27:44 46° 75° (ENE) 20:31:43 437.432
CUTE 1.7 + AOD 2 22 Aug 20:36:24 20:40:03 28° 263° (W) 20:43:44 437.475
O/OREOS (USA 219) 22 Aug 20:42:26 20:46:38 37° 256° (WSW) 20:50:50 437.305
XW-2A 22 Aug 20:52:00 20:54:51 26° 263° (W) 20:57:42 145.665 - 145.685
UWE-3 22 Aug 20:56:18 21:00:29 62° 259° (W) 21:04:36 435.000/436.395/437.385
Oscar 11 22 Aug 20:58:00 21:02:03 41° 74° (ENE) 21:06:06 .
CUBEBUG 2 22 Aug 21:08:45 21:12:14 24° 263° (W) 21:15:39 437.445
DELFI C3 22 Aug 21:13:27 21:15:00 12° 68° (ENE) 21:16:33 145.870
STRAND 1 22 Aug 21:19:31 21:24:22 46° 287° (WNW) 21:29:13 437.568
SEEDS 22 Aug 21:21:54 21:24:05 14° 267° (W) 21:26:17 437.485
ZACube-1 22 Aug 21:31:37 21:35:34 43° 261° (W) 21:39:31 437.345
RS-15 22 Aug 21:48:06 21:59:48 67° 248° (WSW) 22:10:52 29.354- 29.394
HO-68 22 Aug 21:51:43 21:53:34 11° 269° (W) 21:55:25 435.675
AO-73 22 Aug 21:52:00 21:55:34 27° 263° (W) 21:59:07 145.935
AAUSAT CUBESAT 2 22 Aug 22:02:36 22:03:22 10° 268° (W) 22:04:08 437.432
Max Valier Satellite 22 Aug 22:06:18 22:09:44 40° 75° (ENE) 22:13:10 145.860
PCSat 22 Aug 22:12:35 22:17:40 43° 110° (ESE) 22:22:46 145.827
Oscar 11 22 Aug 22:36:27 22:38:19 12° 267° (W) 22:40:10 .
UNISAT 6 22 Aug 22:39:10 22:43:00 30° 98° (E) 22:46:54 437.425
FO-29 22 Aug 22:39:56 22:45:19 73° 102° (ESE) 22:50:28 435.910
SO-50 22 Aug 22:42:59 22:47:22 51° 115° (ESE) 22:51:44 436.795
DELFI C3 22 Aug 22:45:35 22:49:20 39° 261° (W) 22:53:07 145.870
LO-87 22 Aug 22:48:04 22:48:55 11° 69° (ENE) 22:49:45 145.935 - 145.965
EO-88 22 Aug 22:55:35 22:59:06 48° 261° (W) 23:02:38 145.990 - 145.960
TIGRISAT 22 Aug 23:13:13 23:17:34 73° 102° (ESE) 23:21:59 435.000
PRISM 22 Aug 23:41:16 23:45:22 70° 284° (WNW) 23:49:25 437.425
ESTCUBE 1 22 Aug 23:53:37 23:58:00 55° 75° (ENE) 00:02:26 437.505/2401.250
PCSat 22 Aug 23:57:04 00:01:11 22° 305° (NW) 00:05:21 145.827
NO-84 23 Aug 00:06:57 00:09:31 24° 126° (SE) 00:11:58 435.350 FM
UNISAT 6 23 Aug 00:16:27 00:19:28 19° 290° (WNW) 00:22:32 437.425
LO-87 23 Aug 00:18:40 00:21:57 33° 262° (W) 00:25:15 145.935 - 145.965
NANOSAT C BR1 23 Aug 00:19:49 00:22:17 15° 95° (E) 00:24:45 145.865
M-CUBED/EXP-1 PRIME 23 Aug 00:23:51 00:27:22 26° 100° (E) 00:30:39 437.505
SO-50 23 Aug 00:25:32 00:28:04 15° 310° (NW) 00:30:38 436.795
POLYITAN 1 23 Aug 00:25:58 00:29:09 21° 96° (E) 00:32:21 437.675
FO-29 23 Aug 00:29:01 00:29:36 10° 299° (WNW) 00:30:11 435.910
AIST 2D 23 Aug 00:39:24 00:42:58 81° 283° (WNW) 00:46:31 435.315
EO-79 23 Aug 00:40:40 00:44:26 31° 98° (E) 00:48:11 145.935-145.965
QB50P2 23 Aug 00:40:40 00:44:33 35° 98° (E) 00:48:26 145.880/145.840
